Preview of NWS' New Version of Forecast
This preview is not operational and should not be used for support decisions.

Regional Weather Roundup (RWR)

Issued by National Weather Service (NWS)

                            
000
ASUS46 KSEW 231110
RWRWA 

WASHINGTON REGIONAL WEATHER ROUNDUP
NATIONAL WEATHER SERVICE SEATTLE WA
400 AM PDT SUN JUN 23 2019

NOTE:"FAIR" INDICATES FEW OR NO CLOUDS BELOW 12,000 FEET WITH NO 
SIGNIFICANT WEATHER AND/OR OBSTRUCTIONS TO VISIBILITY.

WAZ507-509-555>559-231200-
SEATTLE, TACOMA, EVERETT, AND VICINITY
  
CITY           SKY/WX    TMP DP  RH WIND       PRES   REMARKS
EVERETT        CLOUDY    53  49  86 N8        30.17F                  
BOEING FIELD   CLOUDY    58  51  78 S5        30.16F                  
RENTON         CLOUDY    59  53  80 S7        30.16F HAZE             
SEATAC AIRPORT CLOUDY    57  52  83 SW8       30.17S                  
JBLM-MCCHORD   CLOUDY    56  55  99 S8        30.18S                  
PUYALLUP       CLOUDY    54  54 100 SW7       30.18S                  
BREMERTON      CLOUDY    55  52  89 SW5       30.17S                  
JBLM-FT LEWIS  CLOUDY    55  55  99 S10       30.17F                  
TACOMA NARROWS CLOUDY    53  49  86 SW7       30.17S                  
$$
 
WAZ001-503-506-510-514-515-231200-
NORTH INTERIOR
  
CITY           SKY/WX    TMP DP  RH WIND       PRES   REMARKS
BELLINGHAM     CLOUDY    56  48  74 S7        30.14R                  
FRIDAY HARBOR  CLOUDY    52  47  83 W8        30.15S                  
EASTSOUND      CLOUDY    54  52  94 S9        30.12S                  
PORT ANGELES   PTCLDY    50  47  89 W10       30.18S                  
EDIZ HOOK      CLOUDY    53  48  85 W13G18    30.17F                  
PORT TOWNSEND  CLOUDY    54  48  82 VRB5      30.16S                  
NAS WHIDBEY    MOCLDY    56  48  74 W14       30.20S                  
ARLINGTON      CLOUDY    53  49  86 N6        30.18F                  
BURLINGTON     CLOUDY    54  50  87 SW7G14    30.17S                  
$$
 
WAZ020-022-039-040-504-511-512-231200-
SOUTHWEST INTERIOR
  
CITY           SKY/WX    TMP DP  RH WIND       PRES   REMARKS
SHELTON        PTCLDY    52  47  83 SW10      30.15F                  
OLYMPIA        PTCLDY    52  47  83 S9        30.18F                  
CHEHALIS       CLOUDY    55  50  82 SW3       30.21F                  
KELSO          CLOUDY    56  49  77 W7        30.22F                  
VANCOUVER      CLOUDY    58  50  75 W9        30.21S                  
SCAPPOOSE, OR  CLOUDY    57  48  72 NW5       30.21S                  
PORTLAND, OR   DRIZZLE   59  50  72 NW9       30.21S                  
$$
 
WAZ021-516-517-231200-
WASHINGTON COAST
  
CITY           SKY/WX    TMP DP  RH WIND       PRES   REMARKS
FORKS          CLOUDY    53  50  89 W3        30.22F                  
HOQUIAM        CLOUDY    54  52  93 W12       30.23S                  
ASTORIA, OR    CLOUDY    53  50  89 W8        30.25S                  
$$
 
WAZ019-023-024-040-567>569-231200-
CASCADE MOUNTAINS AND COLUMBIA GORGE
  
CITY           SKY/WX    TMP DP  RH WIND       PRES   REMARKS
STAMPEDE PASS  FOG       46  44  93 VRB7      30.12S VSB 1/2          
TROUTDALE, OR  CLOUDY    59  51  75 VRB5      30.21S                  
HOOD RIVER, OR CLOUDY    59  46  63 NW10      30.14R                  
THE DALLES, OR CLOUDY    62  46  55 W8        30.10R                  
$$

WAZ026-027-041>044-520-521-231200-
EAST SLOPES
  
CITY           SKY/WX    TMP DP  RH WIND       PRES   REMARKS
OMAK           PTCLDY    54  39  57 NW6       29.97R                  
WENATCHEE      PTCLDY    61  39  44 W15       29.99S                  
ELLENSBURG     PTCLDY    56  45  66 NW15      30.02F                  
YAKIMA         PTCLDY    56  44  64 W7        30.04R                  
SUNNYSIDE ARPT MOSUNNY   54  47  76 NW5       30.03                   
YAKIMA TC      FAIR      60  41  51 NW5       30.03R                  
$$

WAZ028-034-035-231200-
COLUMBIA BASIN
  
CITY           SKY/WX    TMP DP  RH WIND       PRES   REMARKS
EPHRATA        PTCLDY    61  38  42 NW18G29   29.95S                  
MOSES LAKE     PTCLDY    59  42  53 SW7       29.97S                  
PASCO          MOCLDY    62  46  55 SW7       30.02S                  
RICHLAND ARPT  PTSUNNY   61  46  57 S6        30.02                   
HERMISTON, OR  CLOUDY    61  47  59 SW13      30.04F                  
$$

WAZ036>038-231200-
NORTHEAST WASHINGTON
  
CITY           SKY/WX    TMP DP  RH WIND       PRES   REMARKS
SPOKANE GEIGER MOCLDY    54  42  64 SW16      29.96R                  
SPOKANE FELTS  CLOUDY    59  43  55 SW13      29.96R                  
FAIRCHILD AFB  PTCLDY    51  44  75 SW14      29.96R                  
COEURDALENE,ID CLOUDY    58  46  64 S7        29.97R                  
DEER PARK      CLOUDY    57  46  66 S8        29.95R                  
$$

WAZ029>033-231200-
SOUTHEAST WASHINGTON
  
CITY           SKY/WX    TMP DP  RH WIND       PRES   REMARKS
PULLMAN        PTCLDY    53  44  71 W9        30.04R                  
LEWISTON, ID   PTCLDY    61  48  62 CALM      29.99R                  
WALLA WALLA    PTCLDY    59  46  62 S13       30.06S                  
PENDLETON, OR  MOCLDY    58  45  62 W14       30.06S                  
$$